Vertical_Velocity
-0 -1 -1 -1 -2 -2 -1 -1 0 0 0 -1 -1 -1 -1 -1 -1 -1 -1 -1 -1 -1 -1 -1 -1 -1 -1 -1 -1 -1 -1 -1 -1 -1 -1 -0 -0 -0 -1 -1 -1 -1 -1 -2 -2 -2 -2 -2 -2 -2 -3 -2 0 2 2 0 -1 -1 -1 -1 -1 -1 -1 -1 -1 -1 -1 -1 -0 -0 -0 -0 -0 -0 -1 -0 -0 -1 -1 -1 -1 -1 -1 -1 -1 -1 -1 -0 -0 -1 -1 -1 -1 -0 -1 -1 -1 -1 -0 -0 -0 -1 -1
-0 -0 -0 -1 -2 -2 -1 -1 -0 1 1 0 -1 -1 -1 -1 -1 -1 -1 -1 -1 -1 -1 -1 -1 -1 -1 -1 -1 -1 -1 -1 -1 -1 -1 -1 -0 -1 -1 -1 -1 -1 -1 -1 -2 -2 -2 -1 -2 -2 -3 -2 -0 2 1 -1 -2 -1 -1 -0 -0 -1 -1 -1 -1 -1 -1 -1 -1 -0 -0 -0 -0 -0 -1 -0 -0 -1 -1 -1 -1 -1 -1 -1 -1 -1 -1 -0 -0 -1 -1 -1 -1 -0 -0 -1 -1 -0 -1 -1 -0 -0 -1
-0 -0 -0 -1 -2 -2 -2 -1 -0 0 1 0 -0 -0 -1 -1 -1 -1 -1 -1 -1 -1 -1 -1 -1 -1 -1 -1 -1 -1 -1 -1 -1 -1 -1 -0 -0 -1 -1 -1 -1 -1 -1 -1 -1 -1 -1 -1 -1 -2 -3 -2 -0 1 1 -1 -1 -1 -1 -0 -0 -0 -0 -0 -0 -1 -1 -1 -1 -1 -0 -0 -0 -0 -1 -1 -1 -1 -1 -0 -1 -1 -1 -1 -1 -1 -1 -0 -0 -0 -1 -1 -1 -0 -0 -1 -1 -1 -0 -0 -0 -0 -1
-0 -0 -0 -1 -1 -2 -2 -1 -1 -0 0 1 1 0 -0 -1 -1 -1 -1 -1 -1 -1 -1 -1 -1 -1 -1 -1 -1 -1 -1 -1 -1 -1 -1 -0 -0 -1 -1 -1 -1 -1 -1 -0 -0 -1 -1 -0 -1 -1 -3 -1 0 1 1 -0 -1 -1 -0 -0 -0 -0 -0 -0 -0 -0 -0 -1 -1 -1 -0 -1 -1 -1 -1 -0 -0 -1 -1 -1 -1 -1 -1 -1 -1 -1 -1 -1 -0 -0 -1 -0 -0 -0 -0 -1 -1 -0 -1 -1 -0 -0 -0
-0 -0 -1 -1 -1 -2 -2 -1 -1 -1 -0 0 0 0 -0 -1 -1 -1 -1 -1 -1 -1 -1 -0 -1 -1 -1 -1 -1 -1 -1 -1 -1 -1 -1 -1 -0 -1 -1 -1 -1 -1 -1 -0 -0 -0 -0 -0 -1 -2 -3 -1 0 1 1 -0 -1 -1 -0 -0 -0 -0 -0 -0 -0 -0 -0 -1 -1 -1 -1 -1 -1 -1 -1 -0 -0 -1 -1 -1 -1 -1 -1 -1 -1 -0 -0 -1 -1 -1 -1 -0 -0 -0 -0 -0 -0 -0 -1 -1 -0 -0 -1
-0 -0 -0 -1 -1 -1 -1 -1 -1 -1 -1 -0 0 0 0 -0 -1 -1 -1 -1 -0 -0 -0 -0 -0 -1 -1 -1 -1 -1 -1 -1 -1 -1 -1 -1 -0 -1 -1 -1 -1 -1 -1 -0 -0 -0 -0 -0 -1 -1 -3 -1 -0 1 1 -0 -0 -1 -0 -1 -1 -0 -0 -0 -0 -1 -1 -1 -1 -1 -1 -0 -0 -1 -1 -0 -1 -1 -1 -1 -1 -1 -1 -0 -0 -0 -0 -0 -1 -1 -1 -1 -0 -0 -0 -0 -0 -1 -0 -0 -0 -0 -0
-1 -1 -1 -1 -1 -1 -1 -0 -0 -1 -1 -1 -0 0 -0 -0 -1 -1 -1 -0 -0 -0 -0 -0 -0 -1 -1 -1 -1 -0 -0 -1 -1 -1 -2 -1 -1 -1 -1 -1 -1 -1 -1 -1 -0 -0 -0 -0 -1 -1 -2 -1 0 1 1 -0 -0 -0 -0 -1 -1 -1 -1 -1 -1 -1 -1 -1 -0 -0 -1 -0 -0 -1 -1 -1 -0 -0 -0 -0 -1 -1 -1 -0 -1 -1 -0 -1 -1 -1 -1 -1 -0 -0 -0 -0 -0 -0 -0 -0 -0 -0 -0
-1 -1 -1 -1 -1 -1 -0 -0 -0 -1 -1 -1 -0 -0 -0 -1 -1 -1 -1 -0 -0 -0 -0 -0 -0 -1 -1 -1 -0 -0 -0 -1 -1 -1 -1 -1 -1 -1 -1 -1 -1 -1 -1 -1 -1 -0 -0 -0 -1 -1 -2 -1 0 1 0 -0 -0 0 0 -0 -0 -1 -1 -1 -1 -1 -1 -0 -0 -0 -1 -1 -0 -0 -0 -0 -0 -0 0 -0 -0 -0 -0 -1 -1 -1 -1 -1 -1 -1 -0 -0 -0 -0 -0 -0 -0 -0 -0 -0 -0 -0 -0
-1 -0 -1 -1 -1 -1 -0 -0 -0 -0 -1 -1 -0 -0 -0 -0 -1 -1 -1 -1 -0 -0 -0 -0 -0 -0 -0 -0 -0 -0 -0 -0 -1 -1 -1 -1 -1 -1 -1 -1 -1 -1 -1 -1 -1 -0 -0 -0 -0 -1 -2 -1 1 1 0 -1 -0 0 0 0 -0 -0 -1 -1 -1 -1 -1 -0 -1 -1 -1 -1 -1 -0 -0 -0 -0 -0 0 -0 -0 -0 -0 -1 -1 -0 -0 -1 -1 -1 -1 -1 -1 -1 -1 -1 -0 -0 -0 -0 -0 -0 -0
-1 -0 -0 -1 -1 -1 -0 -0 -0 -0 -0 -0 -0 -0 -0 -0 -0 -1 -1 -0 -0 -0 0 0 -0 -0 -0 -0 -0 0 0 -0 -1 -1 -1 -1 -1 -1 -1 -1 -1 -1 -1 -1 -1 -0 -0 -0 -0 -1 -1 -1 1 2 1 -0 -1 -0 0 0 0 0 -0 -0 -1 -1 -0 -0 -1 -1 1 -1 -1 -0 -0 -0 -0 -0 0 -0 -0 -0 -0 -0 -0 -0 -0 -1 -1 -1 -1 -1 -1 -1 -1 -1 -0 -0 -0 -0 -0 -0 -0
-1 -0 -0 -1 -1 -1 -0 -0 -0 -0 -0 -0 -0 -0 -0 -0 -0 -0 -0 -1 -1 -0 0 0 -0 -0 -0 -0 0 0 0 -0 -0 -1 -1 -1 -1 -1 -1 -1 -1 -1 -1 -1 -1 -0 -0 -0 -0 -1 -1 -1 0 2 2 0 -0 -0 0 0 0 0 0 -0 -0 -0 -0 -0 -0 0 1 -0 -1 -0 -0 -1 -1 -0 0 -0 -0 0 -0 -0 -0 -0 -0 -0 -1 -1 -0 -1 -1 -1 -1 -1 -0 -0 -0 -0 0 0 0
-0 -0 0 0 -0 -0 0 0 -0 -0 -1 -0 -0 -0 -0 -0 -0 0 0 -0 -0 -0 -0 -0 0 0 0 0 0 0 0 -0 -0 -1 -1 -1 -1 -1 -1 -1 -1 -1 -1 -1 -1 -1 -0 -0 -0 -0 -0 -1 0 1 2 1 -0 -0 -0 0 0 0 0 0 -0 -0 -0 -1 -1 -0 -1 -1 -0 -0 -1 -0 -0 -0 0 -0 -0 -0 -0 -0 -0 -0 -0 -0 -0 -0 -0 -1 -1 -1 -1 -1 -0 -0 -1 -0 0 0 -0
-0 -1 -0 -0 0 0 0 0 -0 -0 -1 -1 -1 -0 -0 -0 -0 -0 0 -0 0 0 -0 0 0 0 0 0 0 0 0 0 -0 -1 -1 -1 -1 -1 -1 -1 -0 -1 -1 -1 -1 -1 -0 -0 -1 -1 -0 -1 -0 1 2 2 0 -1 -0 0 0 -0 -0 0 0 -0 -1 0 -0 -1 -1 -1 -0 -0 -0 -0 -0 -0 0 -0 -0 -0 -0 -0 -0 -0 -0 -0 -0 -0 -0 -1 -0 -1 -1 -1 -1 -1 -1 -0 -0 -0 -0
0 -1 -2 -1 -0 1 1 -1 -1 -0 -1 -1 -1 -1 -1 -1 -1 -1 -0 -0 0 0 0 0 1 1 0 0 1 1 1 0 -0 -1 -1 -1 -1 -1 -0 -0 -0 -0 -1 -1 -1 -1 -1 -1 -1 -1 -1 -1 -0 1 2 2 1 -1 -1 -0 -0 -0 -0 -0 0 -0 -1 0 -0 -0 -1 -1 -0 -0 -0 -0 -0 -0 -0 -0 -0 -0 -1 -0 -0 -0 -0 -0 -0 -0 -0 -1 -0 -0 -0 -0 -0 -0 -0 -0 -0 -0 -0
0 -0 -1 -1 -0 1 0 -2 -1 0 -1 -1 -1 -1 -1 -1 -1 -1 -1 -1 -0 0 1 1 1 1 1 1 1 1 1 0 -0 -1 -1 -1 -1 -1 -0 -0 -0 -0 -0 -1 -1 -1 -1 -1 -1 -1 -1 -1 -0 1 2 2 1 -1 -1 -0 -0 -1 -0 -0 -0 -0 -0 -0 -0 -0 -1 -1 -1 -1 -0 -0 0 -0 -0 -0 -0 -0 -1 -1 -0 -0 -0 -0 -0 -0 -0 -0 -0 -0 -0 -0 -0 -1 -0 -1 -0 -0 -0
0 0 -0 0 1 1 0 -1 1 1 -2 -1 -1 -1 -1 -1 -1 -1 -1 -1 -1 -0 0 0 1 1 1 1 1 1 1 0 0 -0 -1 -1 -1 -1 -0 -0 -0 -0 -0 -0 -1 -1 -1 -1 -1 -1 -1 -1 -1 0 2 2 1 -1 -1 -1 -0 -1 -1 -0 -0 -0 -0 -0 -0 -0 -1 -1 -1 -1 -0 0 0 0 -0 -0 -0 -1 -1 -1 -0 -0 -0 -0 -0 -0 -0 -0 -0 -0 -0 -0 -1 -1 -1 -1 -0 -0 -0
1 0 0 1 1 1 1 0 1 1 -0 -0 -1 -1 -1 -1 -1 -1 -1 -1 -1 -1 -0 0 0 0 1 1 1 1 1 1 0 -0 -0 -0 -0 -0 -0 -0 -0 -0 -0 -0 -0 -0 -0 -0 -0 -0 -1 -1 -0 0 2 2 0 -1 -1 -1 -1 -1 -0 -0 -0 -0 0 -0 -0 -0 -0 -1 -1 -1 -0 -0 0 0 -0 -0 -0 -1 -0 -0 -0 -0 -0 -0 -0 -0 -0 -0 -0 -0 -1 -1 -1 -1 -1 -1 -1 -0 -0
1 0 -0 0 0 0 1 0 0 0 0 -0 -1 -1 -0 -0 -1 -1 -1 -1 -1 -1 -1 -0 -0 0 0 1 1 1 1 1 0 0 0 -0 -0 -0 -0 -0 -0 -0 -0 0 0 0 -0 -0 -0 -0 -0 -1 -0 0 1 1 0 -1 -1 -1 -1 -0 -0 -0 -0 -0 0 0 -0 -0 -0 -0 -1 -1 -1 -0 -0 -0 -0 -0 -0 -1 -0 -0 -0 -0 -0 -0 -0 -0 -0 -0 -0 -1 -1 -1 -1 -1 -1 -1 -1 -0 -0
1 0 0 0 0 0 0 1 -0 -1 -1 -1 -1 -1 -0 -0 -0 -1 -1 -1 -1 -1 -1 -0 -0 -0 0 1 1 1 1 1 1 1 0 0 0 -0 -0 -0 -0 -0 -0 0 0 0 0 0 0 -0 -0 -0 0 1 1 1 -0 -1 -1 -1 -0 -0 -0 -0 -0 -0 -0 -0 -0 -0 0 -0 -0 -1 -0 -0 -0 -0 -0 -0 -0 -0 -0 -0 -0 -0 -0 -0 -0 -0 -0 -1 -1 -1 -1 -1 -1 -1 -1 -1 -1 -1 -0
1 1 1 1 0 0 0 1 -0 -2 -1 -1 -1 -1 -1 -0 -0 -0 -1 -1 -1 -1 -1 -1 -0 -0 0 1 2 2 1 1 1 1 1 1 0 0 -0 -0 -0 -0 -0 0 0 1 1 1 0 0 -0 -0 0 1 1 1 -0 -1 -1 -0 -0 -0 -0 -0 -0 -0 -0 -0 -0 -0 0 -0 -0 -1 -0 0 0 -0 0 0 0 -0 -0 -0 -0 -0 -0 -0 -0 -0 -1 -1 -1 -1 -1 -1 -1 -1 -1 -1 -1 -1 -0
2 1 1 1 1 1 0 1 -0 -2 -0 0 0 -1 -1 -1 -0 -0 -0 -1 -1 -1 -1 -1 -1 -0 1 1 2 2 1 1 1 1 1 1 1 0 -0 -0 -0 -0 -0 0 0 1 1 1 1 0 0 0 1 1 2 1 -1 -1 -1 -0 -0 -0 -0 -0 0 0 0 0 -0 -0 -0 -0 -0 -0 -0 0 0 0 -0 0 0 -0 -0 -0 -0 -0 -0 -0 -0 -1 -1 -1 -1 -1 -1 -1 -1 -1 -0 -0 -0 -0 -0
2 2 2 1 1 1 1 1 0 -1 -1 2 2 0 -1 -1 -0 0 0 -0 -0 -0 -0 -1 -1 -0 0 1 1 2 1 1 1 1 1 1 1 1 0 -0 -1 -1 -0 0 0 1 1 1 1 1 0 0 1 1 2 1 -0 -1 -1 -0 -0 -0 -1 -0 0 1 1 0 -0 -0 -0 -0 -0 -0 -0 0 0 0 -0 0 0 0 -0 -0 -0 -0 -0 -0 -0 -0 -1 -1 -1 -1 -1 -1 -0 -0 -0 -0 -0 -0 -0
1 2 2 2 1 1 1 1 0 -1 -2 2 2 1 0 -1 -0 0 1 -0 -0 -0 0 -0 -0 -1 -1 -0 1 1 1 1 1 1 1 1 1 1 0 -0 -1 -1 -0 0 0 1 1 1 1 1 0 -0 0 1 2 1 -0 -1 -0 0 -0 -0 -1 -0 0 0 1 1 0 -0 -0 -0 -0 0 0 0 0 0 0 0 0 0 0 -0 -0 -0 -0 -0 -0 -0 -1 -1 -1 -1 -1 -0 -0 -0 -0 0 -0 -0 -0
1 2 2 2 2 1 1 0 -0 -1 -2 2 3 2 1 -1 -1 -0 1 0 -0 -0 0 0 -0 -1 -1 -1 -0 0 1 1 1 1 1 1 1 1 1 -0 -0 -1 -0 0 0 1 1 1 1 1 0 -0 0 1 2 1 -0 -1 -0 0 0 -0 -1 -0 -0 -0 -0 0 -0 -0 -0 -1 -0 0 0 -0 -0 -0 0 0 0 0 0 0 0 -0 -0 -0 -0 -0 -1 -1 -1 -1 -0 -0 -0 -0 -0 0 0 0 0
0 1 2 2 2 1 1 -0 -1 -1 0 3 4 3 -0 -2 -2 -1 0 -0 -0 -1 -0 0 0 -0 -1 -1 -1 -1 0 1 1 1 0 1 1 1 1 0 -0 -0 -0 0 0 1 1 1 1 1 0 -0 0 1 3 2 0 -1 -1 0 0 -0 -1 -0 -0 -0 0 -0 -0 -0 0 -0 -0 -0 -0 -0 -0 -0 -0 0 0 0 0 -0 -0 -0 -0 -1 -1 -1 -1 -1 -1 -0 -0 -0 -0 -0 -0 0 0 0 0
1 1 1 2 2 1 1 -1 -2 -1 4 6 4 1 -2 -2 -2 -1 -0 -0 -0 -0 -0 0 0 0 -0 -1 -1 -1 -0 1 1 1 0 0 -0 0 0 0 -0 -0 -0 0 0 0 1 1 1 0 -0 -0 0 2 3 2 1 -1 -1 -0 0 -0 -1 -0 -0 -0 0 -0 -0 0 0 0 -0 -0 -0 -1 -1 -0 -0 0 0 0 0 -0 -0 -0 -0 -1 -1 -1 -1 -1 -0 -0 -0 -0 -0 -0 0 0 0 0 1
1 1 2 2 2 1 1 -0 -2 -2 1 2 1 -1 -1 -1 -1 -1 -0 -0 -0 -0 -0 -0 -0 -0 0 -0 -1 -1 -1 0 1 1 1 0 -0 -0 -0 -0 -0 -1 -1 -0 0 0 1 1 0 0 -1 -0 1 2 3 2 1 -0 -1 -1 -0 0 -0 -0 -0 -0 -0 -0 0 0 1 0 -0 -0 -0 -1 -1 -1 -0 -0 -0 0 0 -0 -0 -0 -0 -0 -1 -1 -1 -0 -0 -0 -0 -0 -0 -0 0 0 0 1 1
1 2 2 3 2 1 1 0 -1 -2 -2 -2 -2 -1 0 0 0 -0 -0 -1 -0 0 0 -0 -0 -0 -0 -1 -1 -1 -2 -1 0 1 1 1 0 -0 -1 -1 -1 -1 -1 -1 -0 0 1 1 0 -0 -1 -0 1 2 3 3 1 -0 -1 -1 -0 0 0 -0 0 0 -0 -0 -0 -0 0 -0 -0 -0 0 -0 -0 -0 -0 -0 -0 -0 -0 -0 -0 -0 -0 -0 -1 -1 -1 -0 -0 -0 0 0 -0 -0 0 0 0 1 1
1 1 1 2 2 2 1 1 0 -0 -1 -2 -1 -1 -0 0 0 0 0 -0 -0 0 1 0 -0 -1 -1 -1 -1 -2 -2 -1 -1 -0 0 1 1 1 0 -1 -1 -2 -2 -2 -1 -0 1 1 1 -0 -1 -1 0 2 2 3 2 0 -1 -1 -0 0 0 0 0 0 0 -0 -0 -0 -0 -0 -0 -0 0 0 -0 -0 -0 -0 -0 -0 -0 -0 0 0 -0 -0 -0 -0 -0 -0 -0 0 0 0 0 0 0 0 1 1 1
1 1 1 2 3 2 1 1 1 0 -0 -1 -1 -1 -1 -0 1 1 0 0 0 0 0 -0 -0 -1 -1 -1 -1 -1 -1 -2 -2 -1 -1 0 1 2 2 1 -0 -1 -2 -2 -2 -1 0 1 1 0 -1 -1 -0 1 2 2 2 1 -0 -1 -0 0 1 0 0 0 1 0 -0 -0 -0 -0 -0 -0 0 0 -0 -0 -0 -0 -0 -0 -0 -0 0 0 0 0 -0 -0 -0 -0 -0 0 0 0 0 0 0 0 1 1 1
0 1 3 3 3 3 1 0 0 0 0 -0 -1 -1 -1 -1 -0 -0 -1 -1 -2 -2 -1 1 0 -1 -1 -0 0 0 -1 -2 -2 -2 -2 -1 0 2 3 3 2 1 -0 -1 -1 -1 -1 0 0 0 -0 -1 -0 1 2 2 2 1 -0 -0 -0 0 1 1 0 0 1 1 0 -0 0 -0 -0 0 0 0 0 -0 -0 -0 -0 0 -0 -0 -0 -0 0 0 0 -0 -0 -0 -0 0 0 0 0 0 1 1 1 1 1
-1 1 4 3 2 2 1 0 -0 0 1 1 1 -0 -0 -0 -1 -1 -2 -3 -4 -5 -4 2 3 1 -1 -0 0 1 0 -1 -2 -2 -3 -3 -2 -0 2 4 4 4 2 1 -1 -1 -1 -0 -0 0 -0 -0 -0 0 1 2 2 1 -0 -0 -0 0 1 1 1 0 0 1 1 0 0 -0 -0 -0 -0 -0 -0 -0 -0 -0 -0 -0 -0 -0 -0 -0 -0 0 0 0 -0 -0 -0 -0 0 0 0 0 0 1 1 1 1
-1 -0 2 2 2 2 2 0 -0 0 1 2 2 1 1 0 -0 -0 -1 -2 -4 -4 -2 2 4 4 0 -1 0 1 1 -0 -1 -2 -3 -3 -4 -3 -1 1 3 4 4 2 1 -0 -1 -1 -0 -0 -0 -0 -0 0 1 1 1 1 0 -0 -0 -0 0 1 1 0 0 1 1 1 1 1 0 0 0 0 -0 -1 -0 -0 -0 -0 -1 -1 -1 -0 -0 -0 -0 -0 -0 -0 -0 -0 -0 0 0 0 0 1 1 1 1
-2 -0 2 3 4 4 3 2 1 0 1 2 2 2 2 1 1 0 -0 -2 -3 -3 -0 1 3 4 3 0 0 1 1 0 -0 -1 -2 -3 -4 -4 -3 -2 0 2 3 3 2 1 -0 -1 -1 -1 -1 -1 -0 1 1 2 2 1 1 -0 -1 -0 0 0 1 1 0 0 1 1 1 1 1 1 0 0 -0 -1 0 0 -0 -1 -1 -1 -1 -1 -0 -0 -0 -0 -0 -0 -0 -0 -0 0 0 -0 0 0 1 1 1
-2 -0 2 5 6 6 3 3 3 1 0 1 2 2 3 2 1 0 0 -2 -3 -3 -2 -0 2 3 2 1 1 2 1 1 1 -0 -2 -3 -3 -4 -4 -3 -2 -1 0 1 2 2 1 0 -0 -0 -1 -1 -0 0 1 2 2 2 1 0 -1 -1 -0 0 1 1 1 0 1 1 1 1 1 0 -1 -0 -0 -1 -0 -0 -1 -1 -1 -1 -1 -1 -1 -0 -0 -0 -0 0 0 -0 -0 -0 -0 -0 -0 0 1 1 1
3 1 2 4 4 3 0 2 2 1 0 0 1 2 2 2 1 0 -0 -2 -4 -4 -2 0 1 0 -3 -0 2 3 3 3 2 1 0 -0 -2 -3 -4 -3 -3 -2 -2 -1 1 1 2 1 1 0 -1 -1 -1 -0 1 1 2 2 2 1 -0 -1 -1 -0 0 1 1 1 1 1 1 1 1 0 0 0 0 -0 -0 -0 -0 -0 -1 -1 -1 -1 -1 -0 -0 -0 -0 1 0 -0 -0 -0 -0 -0 -0 0 1 1 2
19 7 2 1 1 1 0 1 1 1 1 2 2 1 1 1 1 0 -0 -1 -3 -4 -1 2 1 -1 -5 -3 -0 2 4 4 3 2 2 2 0 -1 -3 -2 -2 -3 -3 -2 -1 -0 1 1 1 1 -0 -1 -1 -1 -0 1 1 2 2 1 0 -0 -1 -0 0 1 1 1 1 1 1 1 1 1 1 0 0 0 -0 -0 0 0 -0 -1 -1 -1 -1 -1 -1 -1 0 0 0 -0 -0 -0 -0 -0 -0 -0 0 1 1
35 16 1 -0 -2 -2 -2 1 2 4 5 6 3 0 0 -0 -0 0 0 -0 -2 -3 -3 1 3 1 -4 -6 -5 -2 2 3 3 3 4 4 2 0 -1 -1 -2 -2 -3 -3 -3 -2 -1 -0 1 1 1 -1 -2 -2 -1 -0 1 1 2 2 1 0 -0 -0 -0 0 1 1 1 1 0 1 1 1 1 1 0 0 0 -0 -0 0 -0 -0 -1 -1 -1 -1 -1 -1 -0 -0 -0 -0 0 0 -0 -0 -0 -0 0 1 1
41 29 4 -3 -5 -6 -5 -0 3 7 11 10 5 0 -1 -1 -1 -1 -1 -1 -1 -1 -3 -0 3 5 1 -4 -6 -5 -3 -0 1 3 5 5 4 3 3 2 0 -1 -2 -3 -4 -4 -3 -2 -0 1 1 0 -1 -2 -2 -1 -0 1 2 2 1 1 -0 -0 -0 -0 0 1 1 1 0 0 0 1 1 1 1 1 0 0 -0 -0 0 0 -1 -1 -1 -1 -1 -1 -0 -0 -0 0 0 0 0 -0 -0 -0 0 1 1
25 30 14 -2 -8 -7 -5 -1 2 5 8 8 5 1 -2 -2 -2 -2 -1 -2 -1 -1 -1 -1 2 4 4 -0 -3 -4 -5 -2 0 2 3 5 5 6 6 5 2 0 -0 -2 -3 -4 -4 -3 -2 -1 1 1 -0 -1 -3 -2 -1 0 1 2 2 1 0 -0 -1 -0 0 0 1 1 0 0 -0 0 1 1 1 1 0 0 -0 -0 -0 -0 -0 -1 -1 -1 -1 -0 -0 -0 -0 -0 0 0 0 0 -0 -0 0 0 1
5 12 16 7 -1 -4 -2 -0 2 3 3 3 3 3 2 -1 -2 -1 -1 -1 -1 -1 -1 -0 -0 -0 1 1 1 -0 -3 0 2 3 3 4 5 7 8 5 3 1 2 0 -1 -3 -4 -4 -3 -2 0 1 0 -1 -3 -2 -1 -1 0 1 2 2 1 -0 -1 -1 -0 0 1 1 1 -0 -1 -1 -0 1 2 1 0 1 0 -0 -1 -1 -1 -1 -1 -1 -1 -0 -0 -0 -0 -0 -0 0 1 1 0 -0 0 0 0
-0 0 3 9 10 7 2 1 4 6 4 1 2 6 11 5 3 2 2 -0 -1 -1 -1 -1 -1 -1 -0 1 2 2 2 3 5 5 5 5 5 6 8 5 2 0 2 2 1 -1 -3 -3 -3 -2 -1 0 0 -1 -2 -2 -2 -1 0 1 2 2 1 0 -1 -1 -1 -0 1 1 1 0 -1 -1 -0 1 1 1 1 1 0 -0 -1 -1 -1 -1 -0 -0 -0 -0 -0 -0 -0 -1 -1 -0 0 1 0 0 0 0 -0
-0 -1 -2 2 10 14 10 5 5 7 5 2 3 9 17 14 9 5 5 1 0 1 -0 -1 -2 -1 2 5 6 6 5 6 6 6 6 5 5 5 5 4 2 -0 0 2 2 1 -1 -2 -3 -2 -1 -1 -0 -1 -1 -2 -2 -1 -0 1 2 2 2 1 -0 -1 -1 -0 0 1 2 1 -0 -1 -1 0 1 2 2 1 0 -0 -1 -1 -1 -0 -0 -0 -0 -0 0 -0 -0 -1 -1 -0 0 1 0 0 1 0 -0
-1 -1 -1 -1 3 9 15 11 7 5 4 4 7 10 13 13 12 11 10 6 4 4 1 -0 -1 -1 2 6 9 9 8 7 6 5 6 5 3 3 2 3 2 1 1 2 3 2 1 -1 -2 -3 -2 -1 -1 -0 -0 -1 -2 -2 -1 0 1 2 2 1 1 -0 -1 -1 -0 1 2 2 1 -1 -1 -1 0 1 2 1 1 0 -0 -0 -0 -0 -0 -0 -0 0 0 0 0 -0 -0 -0 0 0 0 1 1 0 -0
-3 -2 -2 -2 0 4 8 11 10 7 5 6 7 8 7 7 10 13 12 9 7 6 4 1 -1 -2 -1 -0 3 5 6 5 4 3 4 4 3 2 0 0 1 2 3 3 3 2 1 -0 -2 -2 -3 -2 -1 -0 -0 -1 -1 -2 -2 -1 0 1 2 2 2 1 -0 -1 -1 -0 1 2 2 1 -0 -1 -1 -0 1 1 1 0 0 -0 -0 -0 -0 -0 -0 0 1 1 0 0 -0 0 0 0 0 0 0 0 0
-3 -3 -4 -3 -1 2 3 5 4 3 4 5 7 8 7 6 6 8 13 11 9 7 8 3 -2 -4 -5 -6 -4 -2 0 1 1 0 -2 -0 1 1 0 -1 -1 0 1 1 1 1 1 0 -1 -2 -2 -1 -0 -0 -0 -1 -1 -2 -3 -2 -1 1 2 3 3 2 1 -0 -1 -1 0 1 2 2 1 0 -1 -0 0 1 1 1 0 0 0 0 0 -0 -0 0 1 1 1 0 0 0 0 0 1 1 0 0 1
-3 -4 -5 -4 -2 -0 1 1 -1 -4 -6 -4 2 7 10 9 9 12 17 15 13 10 8 5 2 -2 -3 -5 -5 -4 -3 -2 -2 -2 -5 -4 -2 0 1 -1 -1 -0 -0 -1 -1 -0 1 1 -0 -1 -1 -1 -0 -0 -0 -0 -1 -2 -3 -3 -2 -0 1 2 3 3 2 1 0 -0 -0 0 1 2 2 1 0 0 1 1 1 1 0 0 1 1 1 0 0 1 1 1 1 0 0 0 0 1 1 1 1 1 1
-3 -3 -4 -3 -3 -2 -1 -0 -1 -3 -6 -9 -8 -3 3 9 15 20 20 16 12 10 8 8 5 4 5 3 -1 -4 -5 -4 -4 -4 -4 -4 -4 -2 1 1 0 -0 0 0 -1 -1 -1 1 1 0 0 0 -0 -1 -1 -0 -1 -2 -3 -2 -2 -2 -1 1 3 3 3 2 1 1 0 -0 0 1 1 1 1 1 2 2 1 1 0 0 0 1 1 1 0 1 1 2 1 1 1 0 0 1 1 1 1 1 1
-2 -2 -3 -2 -2 -2 -2 -1 -1 -1 -1 -2 -4 -5 -6 -2 5 14 22 18 12 8 7 8 8 8 7 5 1 -3 -6 -6 -5 -4 -1 -3 -5 -6 -2 1 1 -0 1 2 2 1 -1 -0 0 0 1 1 1 -0 -1 -1 -2 -2 -2 -1 -2 -3 -2 0 2 3 3 3 3 2 1 0 -0 -1 -0 1 1 2 2 2 2 1 1 1 1 1 1 1 1 1 1 2 1 1 2 1 1 1 2 2 2 2 1
-0 -0 -1 -0 -0 -1 -1 -1 -1 -1 -1 1 2 1 -3 -5 -5 -1 11 18 18 14 9 8 7 6 6 6 2 -1 -2 -4 -3 -0 1 -4 -6 -6 -6 -2 0 2 2 3 4 4 1 -2 -2 -2 0 1 2 1 -0 -2 -2 -2 -2 -1 -2 -2 -2 -1 1 2 3 3 3 3 2 1 0 -1 -1 -0 0 1 2 2 2 2 2 2 1 1 1 1 1 1 2 2 2 1 1 2 3 3 4 4 3 3 3
3 2 2 0 -0 -0 -0 0 0 -1 -2 1 3 4 3 -1 -4 -4 -1 5 11 15 16 12 9 9 11 9 4 0 1 0 1 2 -2 -9 -8 -4 -5 -4 -0 2 1 2 3 3 3 -1 -4 -4 -2 -0 1 2 1 -1 -3 -3 -3 -2 -1 -1 -1 -1 0 1 2 3 3 3 3 3 2 0 -0 -1 -0 0 1 2 3 3 3 3 2 1 1 1 1 1 2 2 2 2 0 1 2 4 4 4 4 4 4
4 4 3 0 -1 -1 -0 1 1 -0 -0 1 2 3 4 3 1 0 0 1 2 5 9 10 10 11 13 11 7 3 2 4 5 2 -4 -12 -11 -6 -1 0 -1 -4 -7 -1 -1 -2 4 0 -2 -2 -1 -1 0 1 0 -1 -2 -4 -4 -3 -2 -1 -1 -0 0 0 0 1 2 3 3 3 3 2 1 0 -0 -0 0 1 2 2 3 3 3 2 1 1 1 2 3 3 3 3 1 0 1 2 3 3 4 4 4
3 3 2 1 1 2 2 2 1 0 1 1 1 1 3 5 4 3 3 3 2 2 2 3 5 7 9 9 9 7 6 7 5 1 -7 -6 -5 -3 -1 2 -4 -10 -11 -0 -3 -8 -3 -1 -0 -0 1 3 2 -0 -4 -5 -5 -4 -4 -4 -4 -2 -0 -0 0 -0 -1 -1 0 2 3 3 3 3 2 1 1 1 1 1 1 2 2 3 3 2 1 1 2 3 3 3 3 3 2 1 0 -0 1 1 2 3 4
3 3 3 4 3 3 5 4 2 1 1 1 0 1 2 4 4 4 4 4 4 3 3 2 3 3 1 1 2 5 6 7 6 2 -2 -2 -0 2 1 -1 -4 -5 -3 3 -1 -9 -17 -5 0 2 2 6 5 1 -5 -7 -7 -6 -4 -5 -5 -4 -2 -1 -1 -1 -3 -2 -1 1 2 1 2 2 2 2 2 2 2 2 2 2 2 2 2 2 1 2 3 3 3 3 3 2 2 1 1 -0 -0 0 1 3 4
3 3 3 4 3 3 6 6 3 1 1 1 1 1 1 3 3 3 4 4 3 3 5 3 3 3 1 -2 -2 0 3 5 6 4 -1 -1 1 2 2 2 4 5 3 1 -4 -11 -16 -3 5 6 -1 4 4 -0 -8 -10 -9 -6 -3 -3 -4 -4 -4 -3 -2 -2 -4 -2 0 2 1 -0 0 1 2 2 2 2 1 2 3 3 3 2 2 2 1 2 3 3 2 2 2 2 2 2 1 1 -0 -0 0 1 2
3 3 3 3 2 2 2 3 3 2 1 1 1 1 1 2 3 3 4 3 3 3 3 3 2 2 2 1 0 1 3 4 5 5 4 2 3 5 4 8 10 10 8 -1 -8 -9 -3 6 8 3 -10 1 3 0 -6 -1 1 1 1 2 1 -1 -4 -4 -3 -3 -4 -1 0 1 1 1 1 1 1 3 3 2 1 2 3 3 4 3 3 2 2 2 2 2 2 2 2 2 2 2 2 2 1 1 1 1 1
1 2 2 3 3 2 1 0 1 1 -0 -0 0 1 1 2 3 3 3 3 2 2 2 3 2 1 1 3 2 1 1 0 1 3 6 4 4 5 8 5 3 2 3 -2 -2 2 6 10 8 -3 -21 -3 3 2 -3 1 3 5 5 5 5 4 1 -2 -3 -3 -3 -2 -2 -2 -1 -0 -2 -4 -4 -2 -1 0 1 2 2 2 3 4 4 3 3 3 2 2 2 2 2 2 3 3 4 3 3 3 2 2 1
-1 0 1 2 3 2 1 0 -2 -3 -3 -1 -0 0 1 2 2 2 1 2 2 2 3 3 1 0 1 4 3 1 -2 -3 -3 -0 4 4 1 -0 2 2 2 2 2 2 8 12 10 5 -2 -9 -14 -6 -3 -1 5 1 -1 -0 2 3 5 6 6 2 -1 -3 -2 -3 -3 -3 -2 -3 -7 -13 -17 -15 -12 -8 -4 -1 0 2 2 3 3 4 4 4 3 3 2 2 2 3 4 5 5 4 4 3 3 3 2
-2 -1 0 2 2 2 1 0 -2 -3 -3 -2 -0 0 -1 -1 0 1 2 3 3 4 5 2 0 -0 2 3 3 2 -0 -4 -3 1 4 4 -2 -6 -2 1 3 4 2 1 4 8 8 -5 -13 -12 6 -3 -10 -10 1 1 0 -0 -1 -3 -2 -0 2 1 -0 -2 -3 -3 -1 0 0 -2 -6 -11 -18 -20 -18 -14 -10 -6 -2 1 2 2 2 3 3 4 4 4 4 3 3 4 4 5 5 4 4 4 3 3 2
-2 -1 -0 -0 0 1 1 1 0 -1 -2 -1 -0 -0 -2 -3 -2 1 3 3 3 4 4 1 -0 1 3 2 1 -0 -2 -3 -1 2 5 2 -6 -9 2 1 -1 -1 2 0 1 1 0 -8 -10 -5 7 -1 -7 -10 -12 -8 -3 1 -1 -4 -7 -8 -9 -7 -5 -3 -3 -4 -2 0 1 0 -1 -3 -9 -13 -14 -12 -11 -7 -4 -1 1 1 1 2 2 3 4 5 5 5 4 4 4 4 4 4 4 3 3 3 2
-2 -1 -1 -2 -2 -0 3 3 3 3 1 2 1 0 -0 -1 -1 -0 3 2 3 3 3 2 2 2 2 0 -0 -1 -2 0 1 1 1 0 -6 -8 2 0 -7 -10 1 -0 0 -0 -2 -6 -4 -1 2 -2 -2 -5 -13 -14 -8 -2 -2 -0 -0 -3 -10 -12 -9 -5 -2 -4 -4 -3 -3 -2 -1 -1 -2 -5 -7 -9 -10 -9 -8 -6 -4 -3 -1 0 2 2 3 4 5 5 5 5 5 4 3 3 3 2 2 2 2
Height
3161 3161 3161 3161 3161 3162 3162 3162 3163 3163 3163 3163 3163 3164 3164 3164 3164 3164 3165 3165 3165 3165 3165 3165 3165 3165 3165 3165 3165 3165 3165 3164 3164 3163 3163 3162 3162 3162 3162 3162 3162 3162 3163 3163 3162 3162 3162 3162 3162 3163 3163 3164 3165 3166 3166 3166 3166 3167 3167 3167 3168 3169 3169 3169 3170 3170 3171 3171 3172 3172 3172 3172 3173 3173 3173 3173 3174 3174 3174 3174 3174 3174 3174 3174 3174 3175 3175 3175 3175 3174 3174 3174 3174 3174 3174 3174 3173 3173 3173 3173 3172 3172 3172
3160 3160 3160 3160 3161 3161 3161 3162 3162 3162 3163 3163 3163 3164 3163 3164 3164 3164 3164 3164 3165 3165 3165 3165 3165 3165 3165 3165 3165 3165 3164 3164 3164 3163 3163 3162 3162 3162 3162 3162 3162 3162 3163 3163 3163 3163 3162 3162 3163 3163 3163 3164 3165 3166 3166 3166 3166 3167 3167 3167 3168 3169 3169 3169 3170 3170 3171 3171 3171 3172 3172 3172 3173 3173 3173 3174 3174 3174 3174 3174 3174 3174 3174 3174 3175 3175 3175 3175 3175 3174 3174 3174 3174 3174 3174 3173 3173 3173 3173 3173 3172 3172 3172
3159 3160 3160 3160 3160 3160 3161 3161 3161 3162 3162 3162 3163 3163 3163 3163 3163 3164 3164 3164 3164 3164 3165 3165 3165 3165 3165 3165 3165 3164 3164 3164 3164 3163 3163 3162 3162 3162 3162 3162 3162 3162 3162 3163 3163 3163 3163 3163 3163 3163 3163 3164 3165 3166 3166 3166 3166 3167 3167 3168 3168 3169 3169 3169 3170 3170 3171 3171 3171 3172 3172 3172 3172 3173 3173 3173 3173 3174 3174 3174 3174 3174 3174 3174 3175 3175 3175 3175 3175 3174 3174 3174 3174 3174 3174 3173 3173 3173 3173 3173 3172 3172 3172
3159 3159 3159 3159 3159 3159 3160 3160 3161 3161 3162 3162 3162 3162 3162 3163 3163 3163 3163 3163 3164 3164 3164 3164 3165 3165 3165 3164 3164 3164 3164 3164 3163 3163 3163 3162 3162 3162 3162 3162 3162 3162 3162 3163 3163 3163 3163 3163 3163 3163 3164 3164 3165 3166 3167 3166 3167 3167 3167 3168 3168 3169 3169 3169 3170 3170 3170 3171 3171 3171 3172 3172 3172 3173 3173 3173 3173 3173 3174 3174 3174 3174 3174 3174 3174 3175 3175 3175 3174 3174 3174 3174 3174 3174 3174 3174 3173 3173 3173 3173 3172 3172 3172
3158 3158 3158 3158 3159 3159 3159 3159 3160 3160 3161 3161 3162 3162 3162 3162 3162 3162 3163 3163 3163 3164 3164 3164 3164 3164 3164 3164 3164 3164 3164 3164 3163 3163 3162 3162 3162 3162 3162 3162 3162 3162 3162 3163 3163 3163 3163 3164 3164 3164 3164 3165 3165 3166 3167 3167 3167 3167 3167 3168 3168 3169 3169 3169 3170 3170 3170 3171 3171 3171 3172 3172 3172 3172 3173 3173 3173 3173 3174 3174 3174 3174 3174 3174 3175 3175 3175 3174 3174 3174 3174 3174 3174 3174 3174 3174 3174 3173 3173 3173 3173 3172 3172
3157 3157 3158 3158 3158 3158 3158 3159 3159 3159 3160 3160 3161 3161 3162 3162 3162 3162 3162 3163 3163 3163 3163 3164 3164 3164 3164 3164 3164 3164 3164 3164 3163 3163 3162 3162 3162 3162 3162 3162 3162 3162 3162 3162 3163 3163 3163 3164 3164 3164 3164 3165 3166 3166 3167 3167 3167 3167 3168 3168 3168 3169 3169 3169 3170 3170 3170 3170 3171 3171 3171 3172 3172 3172 3173 3173 3173 3173 3174 3174 3174 3174 3174 3174 3174 3174 3175 3174 3174 3174 3174 3174 3174 3174 3174 3174 3173 3173 3173 3173 3173 3172 3172
3157 3157 3157 3157 3157 3157 3158 3158 3158 3159 3159 3159 3160 3160 3161 3161 3161 3162 3162 3162 3163 3163 3163 3163 3163 3164 3164 3164 3164 3164 3164 3163 3163 3163 3162 3162 3162 3162 3161 3161 3162 3162 3162 3162 3163 3163 3163 3164 3164 3164 3164 3165 3166 3166 3167 3167 3167 3167 3168 3168 3168 3169 3169 3169 3170 3170 3170 3170 3171 3171 3171 3172 3172 3172 3173 3173 3173 3173 3173 3174 3174 3174 3174 3174 3174 3174 3174 3174 3174 3174 3174 3174 3174 3174 3174 3173 3173 3173 3173 3173 3173 3172 3172
3156 3157 3156 3157 3157 3157 3157 3157 3157 3158 3158 3158 3159 3159 3160 3160 3161 3161 3162 3162 3162 3162 3163 3163 3163 3163 3163 3163 3163 3163 3163 3163 3163 3163 3162 3162 3162 3161 3161 3161 3161 3162 3162 3162 3162 3163 3163 3163 3164 3164 3164 3165 3166 3166 3167 3167 3167 3168 3168 3168 3168 3169 3169 3169 3170 3170 3170 3171 3171 3171 3171 3172 3172 3172 3172 3173 3173 3173 3173 3174 3174 3174 3174 3174 3174 3174 3174 3174 3174 3174 3174 3174 3174 3174 3174 3173 3173 3173 3173 3173 3173 3172 3172
3155 3156 3156 3156 3156 3156 3157 3157 3157 3157 3157 3158 3158 3159 3159 3160 3160 3160 3161 3161 3162 3162 3162 3162 3163 3163 3163 3163 3163 3163 3163 3163 3163 3162 3162 3162 3162 3161 3161 3161 3161 3161 3162 3162 3162 3162 3163 3163 3164 3164 3164 3165 3166 3167 3167 3167 3167 3167 3168 3168 3169 3169 3169 3169 3170 3170 3170 3170 3171 3171 3171 3172 3172 3172 3172 3173 3173 3173 3173 3173 3173 3174 3174 3174 3174 3174 3174 3174 3174 3174 3174 3174 3174 3174 3174 3173 3173 3173 3173 3173 3172 3172 3172
3155 3155 3155 3155 3155 3156 3156 3156 3156 3157 3157 3157 3157 3158 3158 3159 3159 3160 3160 3161 3161 3161 3162 3162 3162 3162 3162 3163 3163 3163 3163 3163 3162 3162 3162 3162 3161 3161 3161 3161 3161 3161 3161 3162 3162 3162 3163 3163 3163 3164 3164 3165 3166 3166 3167 3167 3167 3167 3168 3168 3168 3169 3169 3169 3169 3170 3170 3170 3170 3171 3171 3172 3172 3172 3172 3172 3173 3173 3173 3173 3173 3173 3174 3174 3174 3174 3174 3174 3174 3174 3174 3174 3174 3174 3174 3173 3173 3173 3173 3173 3172 3172 3172
3154 3155 3155 3155 3155 3155 3155 3156 3156 3156 3156 3157 3157 3157 3158 3158 3159 3159 3159 3160 3160 3161 3161 3161 3162 3162 3162 3162 3162 3162 3162 3162 3162 3162 3162 3161 3161 3161 3161 3161 3161 3161 3161 3161 3162 3162 3162 3163 3163 3164 3164 3165 3165 3166 3167 3167 3167 3167 3167 3168 3168 3168 3169 3169 3169 3170 3170 3170 3170 3171 3171 3171 3172 3172 3172 3172 3172 3173 3173 3173 3173 3173 3173 3173 3173 3174 3174 3174 3174 3174 3174 3174 3174 3174 3173 3173 3173 3173 3172 3172 3172 3172 3172
3153 3154 3154 3154 3154 3155 3155 3155 3155 3156 3156 3156 3156 3157 3157 3157 3158 3158 3159 3159 3159 3160 3160 3161 3161 3161 3162 3162 3162 3162 3162 3162 3162 3162 3162 3161 3161 3161 3161 3161 3161 3161 3161 3161 3162 3162 3162 3163 3163 3163 3164 3164 3165 3166 3166 3166 3167 3167 3167 3167 3168 3168 3168 3169 3169 3169 3169 3170 3171 3171 3171 3171 3172 3172 3172 3172 3172 3173 3173 3173 3173 3173 3173 3173 3173 3173 3173 3174 3174 3174 3174 3174 3174 3173 3173 3173 3173 3173 3172 3172 3172 3172 3172
3153 3154 3154 3154 3154 3154 3155 3155 3155 3155 3155 3155 3156 3156 3156 3157 3157 3158 3158 3158 3159 3159 3160 3160 3160 3161 3161 3161 3161 3162 3162 3162 3162 3161 3161 3161 3161 3161 3161 3161 3161 3161 3161 3161 3161 3162 3162 3162 3163 3163 3164 3164 3165 3165 3166 3166 3166 3166 3167 3167 3167 3168 3168 3168 3169 3169 3169 3170 3170 3170 3170 3171 3171 3172 3172 3172 3172 3172 3172 3173 3173 3173 3173 3173 3173 3173 3173 3173 3173 3174 3174 3174 3173 3173 3173 3173 3173 3173 3172 3172 3172 3172 3172
3153 3154 3154 3154 3153 3154 3154 3154 3154 3154 3155 3155 3155 3156 3156 3156 3157 3157 3157 3158 3158 3158 3159 3159 3160 3160 3160 3161 3161 3161 3161 3161 3161 3161 3161 3161 3161 3160 3160 3160 3160 3161 3160 3161 3161 3161 3162 3162 3162 3163 3163 3164 3164 3165 3166 3166 3166 3166 3166 3167 3167 3167 3168 3168 3168 3169 3169 3169 3170 3170 3170 3171 3171 3171 3172 3172 3172 3172 3172 3172 3172 3173 3173 3173 3173 3173 3173 3173 3173 3173 3173 3173 3173 3173 3173 3173 3173 3172 3172 3172 3172 3172 3172
3152 3152 3153 3153 3153 3153 3154 3153 3154 3154 3154 3155 3155 3155 3155 3156 3156 3156 3157 3157 3157 3158 3158 3159 3159 3159 3159 3160 3160 3160 3161 3161 3161 3161 3160 3160 3160 3160 3160 3160 3160 3160 3160 3160 3160 3161 3161 3162 3162 3162 3163 3163 3164 3165 3165 3166 3166 3165 3166 3166 3167 3167 3167 3167 3168 3168 3168 3169 3169 3170 3170 3170 3171 3171 3171 3172 3172 3172 3172 3172 3172 3172 3172 3172 3173 3173 3173 3173 3173 3173 3173 3173 3173 3173 3173 3173 3173 3172 3172 3172 3172 3172 3171
3151 3151 3152 3152 3152 3153 3153 3153 3154 3154 3154 3154 3154 3155 3155 3155 3155 3156 3156 3156 3157 3157 3157 3158 3158 3158 3159 3159 3159 3160 3160 3160 3160 3160 3160 3160 3160 3160 3160 3160 3160 3160 3160 3160 3160 3160 3161 3161 3162 3162 3162 3163 3163 3164 3165 3165 3165 3165 3165 3166 3166 3166 3167 3167 3167 3168 3168 3168 3169 3169 3169 3170 3170 3171 3171 3171 3172 3172 3172 3172 3172 3172 3172 3172 3172 3172 3173 3173 3173 3173 3173 3173 3173 3173 3173 3173 3173 3172 3172 3172 3172 3171 3171
3150 3151 3151 3151 3151 3152 3152 3152 3153 3153 3153 3153 3154 3154 3154 3154 3155 3155 3155 3155 3156 3156 3157 3157 3157 3158 3158 3158 3159 3159 3159 3159 3160 3160 3160 3159 3159 3159 3159 3159 3159 3159 3159 3160 3160 3160 3160 3161 3161 3162 3162 3162 3163 3164 3164 3165 3165 3164 3165 3165 3165 3166 3166 3167 3167 3167 3167 3168 3168 3169 3169 3169 3170 3170 3171 3171 3171 3171 3172 3172 3172 3172 3172 3172 3172 3172 3172 3172 3172 3172 3172 3172 3172 3172 3172 3172 3172 3172 3172 3172 3172 3171 3171
3149 3150 3150 3150 3150 3151 3151 3151 3151 3152 3152 3152 3153 3153 3153 3154 3154 3154 3154 3155 3155 3155 3156 3156 3157 3157 3157 3158 3158 3158 3159 3159 3159 3159 3159 3159 3159 3159 3159 3159 3159 3159 3159 3159 3159 3160 3160 3160 3161 3161 3162 3162 3163 3163 3164 3164 3164 3164 3164 3164 3165 3165 3166 3166 3166 3167 3167 3167 3168 3168 3168 3169 3169 3170 3170 3170 3171 3171 3171 3171 3172 3172 3172 3172 3172 3172 3172 3172 3172 3172 3172 3172 3172 3172 3172 3172 3172 3172 3172 3172 3172 3171 3171
3149 3149 3149 3149 3150 3150 3150 3150 3150 3151 3152 3152 3152 3152 3153 3153 3153 3153 3154 3154 3154 3155 3155 3155 3156 3156 3157 3157 3157 3158 3158 3158 3158 3158 3159 3159 3159 3158 3158 3158 3158 3158 3158 3159 3159 3159 3160 3160 3160 3161 3161 3162 3162 3163 3163 3163 3163 3163 3164 3164 3164 3165 3165 3166 3166 3166 3167 3167 3167 3168 3168 3168 3169 3169 3170 3170 3170 3170 3171 3171 3171 3171 3171 3172 3172 3172 3172 3172 3172 3172 3172 3172 3172 3172 3172 3172 3172 3172 3172 3172 3171 3171 3171
3148 3148 3149 3149 3149 3149 3150 3150 3150 3150 3152 3151 3151 3151 3152 3152 3152 3153 3153 3153 3153 3154 3154 3154 3155 3156 3156 3157 3157 3157 3157 3157 3158 3158 3158 3158 3158 3158 3158 3158 3158 3158 3158 3158 3158 3159 3159 3159 3160 3160 3161 3161 3162 3162 3162 3162 3163 3163 3163 3163 3164 3164 3165 3165 3165 3166 3166 3166 3167 3167 3167 3168 3168 3168 3169 3169 3170 3170 3170 3171 3171 3171 3171 3171 3171 3171 3172 3172 3172 3172 3172 3172 3172 3172 3172 3172 3172 3172 3172 3172 3171 3171 3171
3147 3147 3148 3148 3148 3149 3149 3149 3149 3149 3151 3150 3150 3150 3151 3152 3152 3152 3152 3152 3153 3153 3153 3154 3154 3155 3155 3156 3156 3157 3157 3157 3157 3157 3157 3158 3158 3157 3157 3157 3157 3157 3157 3157 3158 3158 3158 3159 3159 3160 3160 3161 3161 3162 3162 3162 3162 3162 3162 3163 3163 3164 3164 3165 3165 3165 3166 3166 3166 3167 3167 3167 3168 3168 3168 3169 3169 3170 3170 3170 3170 3170 3171 3171 3171 3171 3171 3171 3171 3172 3172 3172 3172 3172 3172 3172 3172 3172 3172 3171 3171 3171 3170
3146 3147 3147 3147 3148 3148 3148 3148 3148 3148 3149 3150 3149 3149 3150 3151 3151 3152 3152 3152 3152 3152 3152 3153 3153 3154 3154 3155 3155 3156 3156 3156 3156 3157 3157 3157 3157 3157 3157 3157 3157 3157 3157 3157 3157 3157 3158 3158 3159 3159 3159 3160 3160 3161 3161 3161 3161 3162 3162 3162 3163 3163 3163 3164 3165 3165 3165 3166 3166 3166 3167 3167 3167 3167 3168 3168 3169 3169 3169 3170 3170 3170 3170 3170 3171 3171 3171 3171 3171 3171 3171 3171 3171 3171 3171 3171 3171 3171 3171 3171 3171 3171 3170
3145 3145 3146 3146 3147 3147 3147 3147 3147 3147 3148 3148 3148 3148 3148 3149 3150 3151 3151 3151 3151 3152 3152 3152 3152 3153 3153 3154 3154 3155 3155 3155 3156 3156 3156 3156 3157 3157 3157 3157 3157 3157 3157 3157 3157 3157 3157 3157 3158 3158 3158 3159 3160 3160 3161 3161 3161 3161 3161 3162 3162 3162 3163 3163 3164 3164 3164 3165 3165 3165 3166 3166 3167 3167 3167 3168 3168 3168 3169 3169 3169 3170 3170 3170 3170 3170 3170 3170 3171 3171 3171 3171 3171 3171 3171 3171 3171 3171 3171 3171 3171 3170 3170
3143 3144 3145 3145 3145 3146 3146 3146 3147 3147 3147 3147 3147 3147 3147 3148 3149 3150 3150 3150 3150 3151 3151 3152 3152 3152 3152 3152 3153 3153 3154 3154 3155 3155 3155 3156 3156 3156 3156 3156 3156 3156 3156 3156 3156 3157 3157 3157 3157 3157 3158 3158 3159 3159 3160 3160 3160 3160 3161 3161 3162 3162 3162 3163 3163 3163 3164 3165 3165 3165 3165 3166 3166 3166 3167 3167 3167 3168 3168 3168 3169 3169 3169 3169 3170 3170 3170 3170 3170 3170 3170 3170 3170 3171 3171 3171 3171 3171 3171 3171 3170 3170 3170
3142 3142 3143 3144 3144 3144 3145 3145 3145 3146 3146 3147 3146 3146 3147 3148 3148 3149 3149 3150 3150 3150 3150 3151 3151 3151 3151 3152 3152 3152 3153 3153 3154 3154 3154 3154 3155 3155 3155 3155 3155 3155 3156 3156 3156 3156 3156 3156 3157 3157 3157 3157 3158 3159 3159 3159 3159 3159 3160 3160 3161 3161 3162 3162 3162 3163 3163 3164 3165 3165 3165 3165 3165 3166 3166 3167 3167 3167 3167 3168 3168 3168 3169 3169 3169 3169 3169 3169 3170 3170 3170 3170 3170 3170 3170 3170 3170 3170 3170 3170 3170 3170 3170
3141 3141 3142 3142 3143 3143 3143 3144 3144 3144 3145 3146 3146 3146 3146 3147 3147 3148 3148 3148 3149 3149 3149 3150 3150 3150 3150 3151 3151 3151 3152 3152 3152 3153 3153 3153 3154 3154 3154 3155 3155 3155 3155 3155 3155 3155 3156 3156 3156 3156 3156 3157 3157 3158 3159 3159 3159 3159 3159 3160 3160 3160 3161 3161 3162 3162 3163 3163 3163 3164 3164 3165 3165 3165 3166 3166 3166 3167 3167 3167 3167 3168 3168 3168 3168 3169 3169 3169 3169 3169 3169 3170 3170 3170 3170 3170 3170 3170 3170 3170 3170 3170 3170
3139 3140 3141 3141 3142 3142 3142 3142 3142 3143 3144 3145 3145 3145 3145 3146 3146 3146 3147 3147 3147 3148 3149 3149 3149 3149 3149 3150 3150 3150 3151 3151 3152 3152 3152 3152 3153 3153 3153 3153 3154 3154 3154 3154 3154 3155 3155 3155 3155 3155 3155 3156 3157 3157 3158 3158 3158 3158 3158 3159 3159 3160 3160 3161 3161 3161 3162 3162 3162 3163 3163 3163 3164 3164 3165 3165 3166 3166 3166 3167 3167 3167 3167 3168 3168 3168 3168 3168 3168 3169 3169 3169 3169 3169 3169 3169 3170 3170 3170 3170 3170 3170 3170
3138 3139 3140 3140 3141 3141 3141 3141 3141 3142 3142 3142 3143 3143 3144 3144 3144 3145 3145 3146 3146 3147 3147 3148 3148 3148 3148 3149 3149 3149 3150 3150 3151 3151 3151 3152 3152 3152 3152 3152 3153 3153 3153 3153 3154 3154 3154 3154 3154 3155 3155 3155 3156 3157 3157 3157 3157 3157 3157 3158 3158 3159 3159 3160 3160 3161 3161 3161 3162 3162 3162 3163 3163 3164 3164 3164 3165 3165 3166 3166 3166 3167 3167 3167 3167 3167 3167 3168 3168 3168 3168 3168 3169 3169 3169 3169 3169 3169 3169 3169 3169 3169 3169
3137 3137 3138 3139 3139 3139 3139 3140 3140 3140 3141 3141 3141 3142 3142 3142 3143 3143 3144 3144 3145 3146 3146 3147 3147 3147 3147 3148 3148 3148 3148 3149 3149 3150 3150 3151 3151 3152 3152 3152 3152 3152 3152 3152 3152 3153 3153 3154 3154 3154 3154 3154 3155 3156 3156 3157 3157 3157 3157 3157 3157 3158 3159 3159 3159 3160 3160 3160 3161 3161 3162 3162 3162 3163 3163 3164 3164 3164 3165 3165 3165 3166 3166 3166 3167 3167 3167 3167 3167 3167 3168 3168 3168 3168 3168 3168 3169 3169 3169 3169 3169 3169 3169
3135 3136 3137 3138 3138 3138 3138 3138 3138 3139 3139 3139 3140 3140 3140 3141 3141 3142 3142 3143 3144 3144 3145 3145 3146 3146 3147 3147 3147 3147 3147 3148 3148 3148 3149 3149 3150 3151 3151 3151 3151 3151 3151 3152 3152 3152 3152 3153 3153 3153 3153 3153 3154 3155 3155 3156 3156 3156 3156 3156 3157 3157 3158 3158 3158 3159 3159 3160 3160 3160 3161 3161 3162 3162 3162 3163 3163 3163 3164 3164 3165 3165 3165 3166 3166 3166 3166 3167 3167 3167 3167 3167 3167 3168 3168 3168 3168 3168 3168 3168 3169 3169 3169
3134 3135 3136 3137 3137 3137 3137 3137 3137 3137 3137 3138 3138 3139 3139 3139 3140 3140 3141 3141 3142 3142 3142 3144 3145 3145 3146 3146 3146 3147 3147 3147 3147 3147 3147 3148 3148 3149 3150 3150 3151 3151 3151 3151 3151 3151 3151 3152 3152 3152 3152 3152 3153 3154 3154 3155 3155 3155 3155 3155 3156 3156 3157 3157 3157 3158 3158 3159 3159 3159 3160 3160 3161 3161 3162 3162 3162 3163 3163 3163 3164 3164 3165 3165 3165 3165 3166 3166 3166 3166 3167 3167 3167 3167 3167 3167 3167 3168 3168 3168 3168 3168 3168
3132 3133 3134 3135 3136 3136 3136 3136 3136 3136 3137 3137 3137 3137 3138 3138 3138 3139 3139 3139 3140 3140 3141 3142 3143 3144 3145 3145 3145 3146 3145 3145 3146 3146 3146 3147 3147 3148 3148 3149 3150 3150 3150 3150 3150 3150 3150 3151 3151 3151 3151 3152 3152 3152 3153 3153 3154 3154 3154 3154 3155 3155 3156 3156 3157 3157 3157 3158 3158 3158 3159 3159 3160 3160 3161 3161 3162 3162 3162 3163 3163 3163 3164 3164 3164 3165 3165 3165 3165 3166 3166 3166 3166 3166 3167 3167 3167 3167 3167 3167 3167 3167 3168
3129 3130 3132 3133 3134 3134 3134 3135 3135 3135 3135 3135 3136 3136 3137 3137 3137 3137 3137 3138 3138 3139 3140 3141 3142 3142 3143 3144 3144 3144 3144 3144 3144 3144 3145 3145 3146 3146 3147 3147 3148 3148 3149 3149 3149 3149 3149 3149 3150 3150 3150 3151 3151 3152 3152 3152 3153 3153 3153 3153 3153 3154 3155 3155 3155 3156 3156 3157 3157 3157 3158 3158 3159 3159 3160 3160 3160 3161 3162 3162 3162 3162 3163 3163 3163 3164 3164 3164 3165 3165 3165 3165 3165 3166 3166 3166 3166 3166 3167 3167 3167 3167 3167
3127 3128 3130 3131 3132 3132 3133 3133 3133 3134 3134 3134 3134 3135 3135 3135 3136 3136 3136 3136 3137 3137 3138 3139 3140 3141 3142 3142 3142 3143 3143 3143 3143 3143 3143 3144 3144 3145 3145 3146 3146 3147 3147 3147 3148 3148 3148 3148 3148 3149 3149 3149 3150 3150 3151 3151 3152 3152 3152 3152 3152 3153 3153 3154 3154 3155 3155 3155 3156 3156 3157 3157 3157 3158 3159 3159 3159 3160 3161 3161 3161 3162 3162 3162 3162 3163 3163 3163 3164 3164 3164 3164 3165 3165 3165 3165 3166 3166 3166 3166 3166 3166 3167
3125 3126 3127 3129 3130 3131 3131 3132 3132 3132 3132 3132 3133 3133 3133 3134 3134 3134 3134 3134 3135 3136 3137 3137 3138 3139 3139 3140 3141 3141 3142 3142 3142 3142 3142 3142 3142 3143 3144 3144 3145 3145 3146 3146 3147 3147 3147 3147 3147 3147 3148 3148 3148 3149 3150 3150 3151 3151 3151 3151 3151 3152 3152 3153 3153 3153 3154 3154 3155 3155 3156 3156 3157 3157 3158 3158 3158 3159 3159 3160 3161 3161 3161 3162 3162 3162 3162 3163 3163 3163 3163 3164 3164 3164 3164 3164 3165 3165 3165 3165 3166 3166 3166
3122 3123 3124 3126 3127 3128 3130 3130 3130 3130 3130 3131 3131 3131 3132 3132 3132 3132 3133 3133 3133 3134 3135 3136 3136 3136 3137 3137 3138 3139 3140 3140 3140 3141 3141 3141 3141 3142 3142 3143 3143 3144 3144 3144 3145 3145 3146 3146 3146 3147 3147 3147 3147 3148 3148 3149 3149 3150 3150 3150 3150 3151 3151 3152 3152 3152 3153 3153 3153 3154 3154 3155 3155 3156 3156 3157 3157 3158 3158 3159 3159 3160 3160 3161 3161 3161 3162 3162 3162 3162 3163 3163 3163 3163 3163 3164 3164 3164 3164 3164 3165 3165 3165
3119 3120 3121 3122 3123 3126 3127 3128 3128 3128 3128 3129 3129 3130 3130 3130 3131 3131 3131 3131 3131 3132 3133 3134 3134 3134 3134 3134 3136 3137 3137 3138 3139 3139 3140 3140 3140 3140 3140 3141 3142 3142 3142 3143 3143 3144 3144 3145 3145 3145 3146 3146 3146 3146 3147 3147 3148 3148 3149 3149 3149 3149 3150 3150 3151 3151 3152 3152 3152 3152 3153 3153 3154 3154 3155 3156 3156 3157 3157 3158 3158 3159 3159 3159 3160 3160 3161 3161 3161 3161 3162 3162 3162 3162 3162 3163 3163 3163 3163 3164 3164 3164 3164
3115 3117 3118 3119 3121 3122 3124 3126 3127 3127 3127 3127 3128 3128 3128 3128 3129 3129 3129 3130 3130 3130 3131 3132 3132 3132 3131 3132 3132 3133 3135 3136 3137 3138 3139 3139 3139 3139 3139 3139 3140 3140 3141 3141 3142 3142 3142 3143 3144 3144 3144 3144 3145 3145 3146 3146 3147 3147 3147 3148 3148 3148 3148 3149 3149 3150 3150 3151 3151 3151 3152 3152 3152 3153 3154 3154 3155 3155 3156 3157 3157 3157 3158 3158 3159 3159 3160 3160 3160 3160 3161 3161 3161 3161 3162 3162 3162 3162 3162 3163 3163 3163 3163
3112 3113 3115 3117 3118 3120 3121 3122 3124 3125 3126 3127 3126 3126 3126 3127 3127 3127 3128 3128 3129 3129 3129 3130 3130 3130 3130 3130 3130 3130 3132 3133 3134 3136 3137 3137 3138 3138 3138 3138 3138 3138 3139 3139 3139 3140 3141 3142 3142 3142 3143 3143 3143 3144 3144 3145 3145 3146 3146 3147 3147 3147 3147 3147 3148 3148 3149 3149 3150 3150 3150 3151 3151 3152 3152 3153 3153 3154 3155 3155 3156 3156 3157 3157 3158 3158 3158 3159 3159 3159 3160 3160 3160 3160 3161 3161 3161 3161 3162 3162 3162 3162 3162
3110 3111 3113 3115 3116 3117 3118 3119 3120 3121 3122 3124 3125 3125 3124 3125 3125 3126 3126 3127 3127 3127 3128 3128 3128 3128 3129 3128 3128 3128 3129 3130 3132 3133 3135 3136 3137 3137 3137 3137 3137 3137 3137 3137 3137 3138 3139 3140 3141 3141 3142 3142 3142 3142 3142 3143 3144 3144 3145 3145 3146 3146 3146 3146 3147 3147 3147 3148 3148 3148 3149 3149 3150 3150 3151 3152 3152 3153 3153 3154 3155 3155 3156 3156 3157 3157 3157 3158 3158 3158 3158 3159 3159 3159 3160 3160 3160 3160 3161 3161 3161 3161 3161
3111 3112 3113 3114 3114 3114 3115 3116 3117 3117 3118 3120 3122 3123 3123 3122 3123 3123 3124 3125 3125 3126 3126 3126 3126 3126 3127 3127 3127 3127 3127 3127 3129 3131 3132 3133 3134 3135 3136 3135 3135 3136 3136 3136 3136 3136 3137 3138 3139 3139 3140 3141 3141 3141 3141 3142 3142 3143 3143 3144 3144 3145 3145 3145 3145 3146 3146 3147 3147 3147 3147 3148 3148 3149 3150 3151 3152 3152 3152 3153 3153 3153 3154 3155 3155 3156 3156 3157 3157 3157 3157 3158 3158 3158 3158 3159 3159 3159 3159 3160 3160 3160 3160
3111 3112 3112 3113 3113 3112 3112 3113 3113 3114 3115 3116 3118 3120 3121 3122 3121 3121 3122 3122 3123 3123 3124 3124 3125 3125 3125 3125 3125 3125 3125 3125 3126 3127 3129 3130 3132 3133 3133 3133 3134 3134 3135 3134 3134 3135 3135 3136 3137 3138 3138 3139 3139 3139 3140 3140 3141 3141 3142 3142 3143 3143 3143 3143 3143 3144 3144 3145 3145 3146 3146 3146 3147 3147 3148 3149 3150 3151 3151 3152 3152 3152 3153 3153 3154 3154 3155 3155 3156 3156 3156 3157 3157 3157 3157 3157 3158 3158 3158 3158 3159 3159 3159
3108 3110 3111 3113 3112 3111 3110 3110 3110 3111 3112 3113 3115 3116 3117 3120 3120 3119 3119 3120 3120 3121 3122 3122 3123 3123 3123 3123 3123 3123 3123 3123 3124 3125 3126 3127 3129 3130 3131 3132 3132 3132 3132 3133 3133 3133 3134 3134 3135 3136 3136 3137 3137 3138 3138 3139 3139 3140 3140 3141 3142 3142 3142 3142 3142 3142 3143 3143 3144 3144 3145 3145 3145 3146 3146 3147 3148 3149 3150 3150 3150 3151 3151 3152 3152 3153 3153 3154 3154 3155 3155 3155 3156 3156 3156 3157 3157 3157 3157 3157 3158 3158 3158
3105 3107 3108 3110 3111 3111 3108 3107 3108 3109 3110 3112 3113 3113 3114 3115 3117 3117 3117 3117 3117 3118 3119 3120 3121 3121 3121 3122 3122 3122 3122 3122 3122 3122 3123 3124 3125 3127 3128 3129 3130 3130 3130 3131 3131 3132 3132 3133 3133 3134 3134 3135 3135 3136 3137 3137 3137 3138 3139 3139 3140 3140 3141 3141 3141 3141 3141 3142 3142 3142 3143 3143 3144 3144 3145 3145 3146 3147 3147 3148 3149 3149 3150 3150 3151 3152 3152 3152 3153 3153 3153 3154 3154 3154 3155 3155 3155 3156 3156 3156 3157 3157 3157
3102 3103 3105 3107 3109 3109 3108 3106 3106 3107 3108 3110 3110 3110 3112 3113 3114 3114 3115 3115 3115 3116 3117 3118 3119 3119 3119 3119 3120 3120 3121 3121 3121 3121 3121 3122 3122 3123 3124 3126 3127 3128 3128 3129 3130 3131 3131 3132 3132 3132 3132 3133 3133 3134 3135 3135 3136 3136 3137 3137 3138 3139 3139 3139 3139 3139 3139 3140 3140 3141 3141 3142 3142 3142 3143 3144 3144 3145 3145 3146 3147 3147 3148 3149 3149 3150 3150 3151 3151 3152 3152 3152 3153 3153 3153 3154 3154 3154 3155 3155 3155 3155 3156
3099 3100 3102 3103 3105 3106 3107 3105 3104 3103 3105 3106 3107 3108 3109 3110 3111 3111 3111 3112 3112 3113 3114 3115 3116 3117 3117 3117 3117 3118 3119 3119 3120 3120 3119 3119 3120 3121 3121 3122 3124 3126 3127 3127 3128 3129 3130 3130 3130 3131 3131 3131 3131 3132 3132 3133 3134 3134 3135 3135 3136 3137 3137 3138 3138 3138 3138 3138 3138 3139 3139 3140 3141 3141 3141 3142 3142 3143 3144 3145 3145 3146 3147 3147 3147 3148 3149 3149 3150 3150 3150 3151 3151 3152 3152 3152 3152 3153 3153 3153 3154 3154 3154
3095 3097 3098 3100 3102 3103 3103 3104 3103 3102 3102 3103 3104 3105 3106 3107 3107 3108 3108 3108 3109 3110 3111 3112 3113 3114 3115 3115 3115 3116 3116 3117 3118 3118 3118 3118 3118 3118 3119 3120 3121 3122 3123 3124 3125 3127 3128 3128 3129 3129 3129 3129 3129 3130 3130 3131 3132 3132 3132 3133 3134 3135 3136 3136 3137 3137 3137 3136 3137 3137 3137 3138 3139 3139 3139 3140 3141 3141 3142 3143 3143 3144 3145 3145 3146 3147 3147 3147 3148 3148 3149 3150 3150 3150 3150 3151 3151 3151 3152 3152 3152 3152 3153
3092 3093 3095 3097 3098 3099 3100 3101 3101 3100 3100 3100 3102 3102 3103 3104 3105 3106 3106 3106 3107 3108 3108 3109 3111 3112 3112 3113 3113 3114 3114 3115 3116 3116 3117 3117 3117 3117 3117 3117 3118 3119 3120 3121 3122 3124 3125 3126 3127 3127 3127 3127 3127 3127 3128 3129 3129 3130 3130 3131 3132 3133 3133 3134 3135 3135 3135 3135 3135 3135 3135 3136 3136 3137 3137 3138 3139 3139 3140 3141 3142 3142 3143 3143 3144 3145 3145 3146 3146 3147 3147 3148 3149 3149 3149 3149 3149 3150 3150 3150 3151 3151 3151
3089 3090 3092 3093 3095 3096 3097 3098 3098 3098 3098 3098 3099 3100 3101 3102 3103 3104 3104 3104 3105 3106 3107 3108 3108 3109 3110 3110 3111 3112 3112 3113 3114 3115 3115 3115 3115 3115 3116 3116 3116 3116 3117 3118 3119 3121 3122 3123 3124 3125 3125 3125 3125 3126 3126 3127 3127 3127 3128 3129 3130 3130 3131 3132 3133 3133 3133 3133 3133 3133 3133 3134 3134 3135 3135 3136 3137 3137 3138 3139 3140 3140 3141 3142 3142 3143 3143 3144 3145 3145 3146 3146 3147 3147 3147 3147 3147 3148 3148 3148 3149 3149 3150
3086 3087 3089 3090 3092 3093 3094 3096 3096 3096 3096 3096 3096 3097 3099 3100 3101 3102 3104 3103 3104 3104 3105 3106 3107 3107 3108 3108 3108 3110 3111 3112 3112 3112 3112 3113 3113 3114 3114 3114 3115 3115 3115 3116 3117 3118 3119 3120 3122 3122 3123 3123 3123 3123 3124 3124 3125 3126 3126 3127 3127 3128 3129 3130 3130 3131 3131 3132 3132 3132 3132 3132 3132 3132 3133 3133 3134 3135 3136 3137 3137 3138 3139 3140 3140 3141 3141 3142 3143 3143 3144 3144 3145 3145 3146 3146 3146 3146 3147 3147 3147 3147 3148
3084 3085 3086 3087 3088 3090 3091 3092 3093 3094 3094 3094 3094 3095 3096 3098 3100 3101 3102 3102 3103 3103 3104 3104 3104 3105 3105 3106 3107 3107 3109 3110 3110 3110 3110 3111 3111 3112 3112 3112 3112 3113 3113 3113 3114 3115 3116 3117 3118 3120 3121 3121 3122 3122 3122 3122 3123 3123 3124 3124 3125 3126 3127 3127 3128 3128 3129 3129 3130 3130 3130 3130 3130 3130 3131 3131 3132 3133 3134 3135 3135 3136 3137 3137 3138 3139 3139 3140 3141 3142 3142 3142 3143 3143 3144 3144 3144 3145 3145 3146 3146 3146 3146
3081 3082 3082 3083 3085 3086 3087 3089 3090 3091 3092 3092 3092 3093 3094 3095 3097 3098 3099 3101 3102 3102 3102 3102 3103 3103 3103 3103 3104 3105 3106 3107 3108 3108 3108 3109 3110 3111 3110 3111 3111 3111 3110 3111 3111 3112 3113 3114 3115 3117 3118 3119 3119 3120 3120 3121 3121 3121 3122 3122 3123 3123 3124 3125 3125 3126 3126 3127 3127 3128 3128 3128 3128 3128 3128 3129 3130 3131 3131 3132 3133 3134 3135 3135 3136 3137 3137 3138 3139 3140 3140 3141 3141 3141 3142 3142 3142 3143 3144 3144 3144 3144 3145
3078 3079 3080 3081 3082 3083 3084 3085 3087 3088 3089 3089 3090 3090 3091 3092 3094 3095 3096 3097 3099 3100 3101 3102 3103 3103 3103 3102 3102 3102 3104 3104 3105 3105 3106 3107 3107 3108 3108 3109 3108 3107 3108 3109 3109 3109 3110 3111 3112 3114 3115 3116 3117 3117 3118 3119 3119 3119 3120 3120 3121 3121 3122 3122 3123 3123 3123 3124 3124 3125 3126 3126 3126 3126 3127 3127 3127 3128 3129 3130 3131 3131 3132 3133 3134 3134 3135 3136 3137 3137 3138 3138 3139 3139 3140 3140 3140 3141 3142 3143 3143 3142 3143
3075 3076 3077 3079 3079 3079 3081 3082 3083 3084 3085 3086 3087 3087 3088 3090 3091 3092 3093 3094 3096 3097 3098 3099 3101 3102 3102 3102 3102 3102 3102 3103 3103 3104 3104 3105 3105 3106 3106 3106 3105 3105 3106 3107 3107 3106 3106 3108 3110 3111 3112 3114 3115 3115 3116 3116 3117 3117 3118 3118 3118 3118 3119 3120 3120 3120 3121 3121 3122 3122 3123 3124 3124 3124 3124 3125 3125 3126 3127 3127 3128 3129 3130 3131 3131 3132 3132 3133 3134 3135 3136 3136 3137 3137 3137 3138 3138 3139 3139 3140 3141 3141 3141
3072 3073 3073 3076 3077 3077 3078 3079 3080 3081 3082 3082 3083 3084 3085 3086 3087 3088 3090 3091 3092 3093 3095 3096 3097 3098 3099 3100 3101 3102 3102 3102 3102 3102 3102 3102 3103 3103 3103 3104 3104 3104 3104 3104 3104 3103 3104 3106 3107 3108 3109 3111 3112 3113 3113 3114 3114 3115 3116 3116 3116 3116 3116 3117 3117 3117 3118 3118 3119 3120 3120 3121 3122 3122 3122 3122 3123 3124 3124 3125 3126 3127 3127 3128 3129 3129 3130 3131 3132 3133 3133 3134 3134 3135 3136 3136 3137 3137 3137 3137 3138 3138 3139
3069 3070 3071 3071 3073 3074 3074 3076 3077 3077 3078 3079 3080 3081 3082 3083 3084 3085 3086 3087 3089 3090 3091 3092 3093 3095 3096 3097 3098 3100 3101 3101 3101 3101 3102 3101 3100 3100 3101 3102 3103 3103 3102 3102 3101 3102 3103 3104 3105 3105 3105 3108 3109 3110 3111 3111 3112 3111 3112 3112 3113 3113 3113 3113 3114 3114 3115 3116 3117 3117 3117 3118 3118 3119 3119 3120 3121 3121 3122 3123 3123 3124 3125 3126 3126 3127 3128 3129 3129 3130 3131 3132 3132 3133 3133 3134 3134 3135 3135 3136 3136 3136 3137
3065 3066 3067 3068 3069 3070 3072 3072 3073 3074 3074 3076 3077 3078 3079 3080 3081 3082 3083 3084 3085 3086 3087 3089 3090 3091 3092 3094 3095 3096 3097 3098 3098 3099 3099 3099 3098 3097 3097 3097 3098 3099 3100 3099 3100 3101 3102 3102 3102 3102 3102 3105 3107 3107 3107 3107 3107 3107 3107 3108 3110 3111 3111 3111 3111 3111 3112 3113 3114 3114 3115 3115 3115 3116 3116 3117 3118 3119 3120 3120 3121 3122 3122 3123 3124 3125 3125 3126 3127 3128 3128 3129 3130 3131 3131 3132 3132 3133 3133 3133 3134 3134 3134
3062 3063 3064 3065 3066 3067 3068 3070 3070 3070 3071 3072 3073 3075 3076 3077 3078 3079 3080 3081 3082 3083 3084 3085 3086 3087 3089 3091 3092 3092 3093 3094 3095 3096 3096 3096 3096 3095 3094 3094 3095 3096 3097 3098 3099 3100 3099 3100 3099 3099 3101 3102 3102 3103 3103 3103 3103 3103 3103 3104 3106 3107 3108 3108 3108 3108 3108 3109 3110 3111 3111 3112 3112 3112 3112 3113 3114 3116 3117 3118 3118 3119 3120 3120 3121 3122 3123 3124 3125 3125 3126 3127 3127 3128 3129 3130 3130 3130 3131 3131 3132 3132 3132
3058 3059 3060 3061 3062 3063 3064 3065 3066 3068 3068 3069 3071 3072 3073 3073 3075 3076 3077 3078 3079 3080 3081 3082 3082 3084 3085 3087 3088 3089 3089 3090 3091 3092 3093 3093 3092 3091 3092 3092 3092 3094 3095 3096 3097 3098 3098 3097 3097 3098 3100 3099 3098 3099 3100 3100 3100 3100 3100 3101 3103 3105 3106 3106 3105 3105 3105 3106 3106 3107 3107 3107 3108 3109 3109 3109 3111 3112 3113 3115 3116 3117 3117 3118 3118 3119 3120 3121 3122 3123 3123 3124 3125 3126 3127 3127 3127 3128 3128 3129 3129 3130 3130
3055 3056 3057 3058 3059 3060 3061 3063 3064 3064 3066 3067 3068 3069 3070 3071 3072 3073 3074 3075 3076 3077 3078 3078 3079 3080 3082 3083 3084 3085 3085 3087 3087 3088 3089 3089 3088 3088 3089 3088 3088 3090 3092 3093 3095 3096 3096 3094 3095 3096 3097 3096 3096 3096 3096 3097 3097 3097 3098 3099 3100 3102 3102 3102 3102 3102 3102 3102 3103 3103 3103 3104 3105 3106 3106 3107 3108 3110 3111 3112 3113 3114 3115 3115 3116 3117 3117 3118 3120 3120 3121 3122 3122 3123 3124 3125 3125 3125 3126 3126 3127 3127 3127
3052 3053 3054 3055 3056 3057 3060 3061 3062 3062 3063 3064 3065 3066 3067 3068 3069 3070 3071 3072 3073 3074 3075 3076 3076 3077 3078 3079 3080 3081 3082 3083 3084 3084 3085 3085 3085 3085 3086 3086 3085 3086 3088 3090 3092 3092 3092 3092 3092 3093 3093 3093 3094 3094 3093 3093 3094 3095 3095 3096 3097 3097 3098 3098 3099 3099 3099 3099 3100 3100 3100 3101 3102 3102 3104 3105 3106 3107 3108 3109 3110 3111 3112 3113 3113 3114 3115 3116 3117 3117 3118 3119 3120 3121 3121 3122 3122 3122 3123 3124 3124 3125 3125